[[{"header":{"parameterUnit":"m.s-1","parameterCategory":1,"la1":30.2991,"la2":30.254,"lo1":-89.0895,"lo2":-89.0444,"dy":0.0017,"dx":0.0017,"nx":28,"ny":28,"refTime":"2023-08-03T09:00:00:Z","depth":0,"parameterNumber":2,"parameterNumberName":"U-component_of_WINDS"},"data":[0,0,0,0,0,0,0,0,0,0,0,0,0,0,0,0,0,0,0,0,0,0,0,0,0,0,0,0,0,0,0,0,0,0,0,0,0,0,0,0,0,0,0,0,0,0,0,0,0,0,0,0,0,0,0,0,0,0,0.8014,0.8015,0,0.8081,0.8082,0.8083,0.8123,0.8123,0.8124,0.8124,0.8188,0.819,0.8191,0,0,0,0,0,0,0,0,0,0,0,0,0,0.7918,0.792,0.8014,0.8015,0.8016,0.8081,0.8082,0.8083,0.8123,0.8123,0.8124,0.8124,0.8188,0.819,0.8191,0,0,0,0,0,0,0,0,0,0,0,0,0,0.797,0.792,0.8014,0.8044,0.8047,0.8081,0.8082,0.8083,0.8123,0.8123,0.8124,0.8124,0.8187,0.8189,0.8192,0.8199,0,0,0.8199,0.82,0,0,0,0,0,0,0,0,0.7967,0.7973,0.8039,0.8042,0.8046,0.8094,0.8072,0.8122,0.8123,0.8094,0.8124,0.8124,0.8157,0.8161,0.8173,0.8202,0.8205,0.8199,0.82,0.8201,0.8202,0,0,0,0,0,0,0,0.7963,0.797,0.8041,0.804,0.8044,0.8053,0.8061,0.8081,0.8123,0.8097,0.81,0.8107,0.8158,0.8171,0.8175,0.8206,0.8199,0.8201,0.8202,0.8203,0.8244,0.8244,0,0,0,0,0,0,0.7955,0.7967,0.8039,0.8043,0.8006,0.8054,0.8063,0.8078,0.8123,0.813,0.8107,0.8109,0.8167,0.8172,0.8177,0.8189,0.8201,0.8203,0.8205,0.8244,0.8244,0.8244,0,0,0,0,0,0,0.7953,0.7961,0.8036,0.8006,0.8016,0.8056,0.8073,0.8079,0.8092,0.813,0.8138,0.8112,0.8167,0.8174,0.8194,0.8191,0.8204,0.8206,0.8245,0.8244,0.8244,0.8211,0,0,0,0,0,0,0.795,0.796,0.7965,0.8006,0.8018,0.8052,0.8072,0.808,0.8096,0.8099,0.8137,0.8144,0.8168,0.819,0.8196,0.8195,0.8208,0.8245,0.8245,0.8244,0.8213,0.821,0.8207,0,0,0,0,0,0.7947,0.7952,0.7965,0.7973,0.8024,0.8052,0.8059,0.8087,0.8096,0.81,0.8124,0.8142,0.8191,0.8192,0.8199,0.8198,0.8245,0.8245,0.8244,0.8214,0.821,0.8207,0,0,0,0,0,0,0.7908,0.7958,0.7972,0.7992,0.8018,0.8059,0.8065,0.8083,0.8106,0.8108,0.8141,0.815,0.8165,0.8184,0.8184,0.8207,0.822,0.8221,0.8195,0.8192,0.8189,0.8184,0.821,0,0,0,0,0,0.7903,0.7923,0.7964,0.7977,0.799,0.8025,0.8038,0.8058,0.8086,0.8096,0.8123,0.8147,0.8168,0.8181,0.8202,0.8216,0.8224,0.8219,0.8216,0.8214,0.8214,0.8221,0.8219,0.8242,0.8242,0.8242,0,0,0.789,0.792,0.793,0.797,0.7993,0.8011,0.8034,0.8052,0.8066,0.8099,0.8119,0.8139,0.8169,0.8185,0.8194,0.8201,0.8209,0.8213,0.8211,0.8212,0.822,0.8218,0.8216,0.8241,0.8241,0.8242,0,0,0.7877,0.7902,0.7915,0.7937,0.7971,0.7994,0.7997,0.8036,0.8051,0.8072,0.8096,0.8112,0.8148,0.8168,0.8183,0.8176,0.8194,0.8182,0.8168,0.8175,0.8173,0.8171,0.8168,0.8167,0.8182,0.8182,0.8182,0,0.7856,0.7887,0.7919,0.7936,0.7953,0.7984,0.7997,0.8016,0.8055,0.8065,0.8073,0.8118,0.814,0.8161,0.8159,0.8171,0.8174,0.8178,0.8171,0.817,0.8169,0.8166,0.8165,0.8181,0.8181,0.8181,0.8181,0,0.786,0.788,0.7886,0.7924,0.7941,0.7956,0.7989,0.8002,0.8021,0.8043,0.8063,0.8091,0.8118,0.8125,0.8143,0.8148,0.8151,0.8165,0.8178,0.8164,0.8162,0.8161,0.8178,0.8179,0.8179,0.818,0,0,0.7824,0.7879,0.7881,0.7898,0.7937,0.7953,0.7969,0.7996,0.8006,0.8032,0.8045,0.8074,0.8086,0.8103,0.8123,0.813,0.8121,0.8142,0.8143,0.8136,0.8128,0.8117,0.8115,0.8133,0.8133,0.8133,0.8125,0,0.7815,0.7847,0.7876,0.7896,0.7914,0.7945,0.7958,0.7983,0.8004,0.8021,0.8044,0.8064,0.8079,0.809,0.8097,0.8121,0.812,0.8122,0.8144,0.8145,0.8135,0.8114,0.8103,0.8094,0.8124,0.8124,0.8124,0,0.781,0.7835,0.7857,0.7894,0.7903,0.7915,0.7942,0.7959,0.7987,0.8002,0.8021,0.8042,0.8059,0.8071,0.8093,0.8094,0.8105,0.8118,0.8118,0.812,0.8133,0.8115,0.8091,0.8089,0.8123,0.8123,0.8123,0,0.778,0.7819,0.7838,0.7851,0.7895,0.7903,0.7921,0.795,0.7964,0.7988,0.7997,0.8022,0.8035,0.8053,0.808,0.8086,0.8099,0.8114,0.8111,0.811,0.8111,0.8111,0.8088,0.812,0.812,0.812,0.812,0,0.7767,0.7779,0.7825,0.7836,0.785,0.7883,0.7895,0.7916,0.7941,0.7956,0.7983,0.7996,0.8031,0.8048,0.8069,0.8084,0.809,0.8101,0.8106,0.8098,0.8096,0.8105,0.8106,0.812,0.812,0.812,0.812,0,0.7736,0.7767,0.7789,0.7829,0.7839,0.7848,0.7881,0.7892,0.7915,0.7933,0.7939,0.7974,0.7995,0.8024,0.8054,0.8068,0.8079,0.8088,0.807,0.8073,0.8067,0.8067,0.8049,0.8047,0.8081,0.808,0.808,0,0.7726,0.7736,0.7777,0.7789,0.7807,0.7827,0.7842,0.7874,0.7888,0.7921,0.7928,0.7951,0.7971,0.8003,0.803,0.8053,0.8062,0.8054,0.8065,0.8056,0.806,0.8059,0.8059,0.8051,0.805,0.805,0.8049,0,0.7703,0.7718,0.7739,0.7766,0.7783,0.7805,0.7829,0.7837,0.7874,0.7888,0.791,0.7926,0.7957,0.7979,0.8005,0.8023,0.8041,0.8046,0.8046,0.8037,0.8025,0.803,0.8061,0.8046,0.8046,0.8046,0.8047,0.8047,0.7681,0.7691,0.7722,0.7744,0.7765,0.7786,0.7798,0.7823,0.7842,0.787,0.7888,0.7909,0.7936,0.7973,0.799,0.8006,0.8014,0.8015,0.8015,0.8014,0.801,0.8024,0.8011,0.8011,0.8011,0.8012,0.8012,0,0.7659,0.768,0.77,0.7733,0.775,0.7768,0.7794,0.7807,0.7826,0.785,0.787,0.7894,0.7916,0.7945,0.7968,0.7975,0.7985,0.798,0.7979,0.7983,0.8003,0.8,0.7972,0.7972,0.7972,0.7972,0.7972,0.7972,0.7649,0.7667,0.7685,0.7712,0.7733,0.7755,0.7768,0.7787,0.7807,0.7834,0.7852,0.7872,0.7897,0.7923,0.7943,0.7951,0.7957,0.795,0.796,0.7978,0.7982,0.7985,0.7982,0.7952,0.7952,0.7939,0.7939,0.7939]},{"header":{"parameterUnit":"m.s-1","parameterCategory":1,"la1":30.2991,"la2":30.254,"lo1":-89.0895,"lo2":-89.0444,"dy":0.0017,"dx":0.0017,"nx":28,"ny":28,"refTime":"2023-08-03T09:00:00:Z","depth":0,"parameterNumber":3,"parameterNumberName":"V-component_of_WINDS"},"data":[0,0,0,0,0,0,0,0,0,0,0,0,0,0,0,0,0,0,0,0,0,0,0,0,0,0,0,0,0,0,0,0,0,0,0,0,0,0,0,0,0,0,0,0,0,0,0,0,0,0,0,0,0,0,0,0,0,0,2.7755,2.7754,0,2.7721,2.772,2.772,2.7677,2.7676,2.7675,2.7675,2.764,2.7639,2.7639,0,0,0,0,0,0,0,0,0,0,0,0,0,2.7781,2.7781,2.7755,2.7754,2.7754,2.7721,2.772,2.772,2.7677,2.7676,2.7675,2.7674,2.764,2.7639,2.7639,0,0,0,0,0,0,0,0,0,0,0,0,0,2.7761,2.7781,2.7755,2.7728,2.7726,2.7721,2.772,2.772,2.7677,2.7676,2.7675,2.7674,2.764,2.7639,2.7639,2.7658,0,0,2.7638,2.7637,0,0,0,0,0,0,0,0,2.7762,2.776,2.7733,2.773,2.7727,2.7702,2.7717,2.7699,2.7677,2.7695,2.7674,2.7673,2.7661,2.7659,2.7655,2.7656,2.7654,2.7638,2.7637,2.7637,2.7637,0,0,0,0,0,0,0,2.7763,2.7761,2.7741,2.7732,2.7729,2.7718,2.7714,2.7713,2.7685,2.7694,2.769,2.7687,2.7659,2.7655,2.7654,2.7654,2.7638,2.7637,2.7637,2.7637,2.7667,2.7668,0,0,0,0,0,0,2.7769,2.7762,2.7742,2.774,2.7742,2.7718,2.7714,2.7711,2.7684,2.7679,2.7688,2.7685,2.7657,2.7654,2.7652,2.7671,2.7637,2.7637,2.7637,2.7666,2.7667,2.7668,0,0,0,0,0,0,2.777,2.7767,2.7744,2.775,2.7747,2.7719,2.7716,2.7711,2.7707,2.768,2.7675,2.7689,2.7656,2.7653,2.7656,2.7669,2.7637,2.7636,2.7665,2.7666,2.7668,2.7709,0,0,0,0,0,0,2.7771,2.7768,2.7775,2.7751,2.7746,2.7749,2.7717,2.7711,2.7706,2.7702,2.768,2.7675,2.7655,2.7657,2.7656,2.7668,2.7636,2.7663,2.7665,2.7667,2.7706,2.7712,2.7717,0,0,0,0,0,2.7772,2.7788,2.7775,2.7773,2.7755,2.7749,2.7747,2.7723,2.7708,2.7714,2.7697,2.7676,2.7668,2.7658,2.7656,2.7668,2.7662,2.7665,2.7667,2.7704,2.7711,2.7716,0,0,0,0,0,0,2.7814,2.7785,2.777,2.778,2.7767,2.7742,2.7749,2.7731,2.7723,2.7719,2.769,2.7685,2.7692,2.7681,2.7669,2.7684,2.7662,2.7664,2.7691,2.7697,2.7702,2.7704,2.7636,0,0,0,0,0,2.7825,2.7823,2.7797,2.7808,2.7803,2.7777,2.7774,2.7757,2.7743,2.7738,2.7721,2.7708,2.7702,2.7699,2.7693,2.7705,2.7699,2.7713,2.7718,2.7722,2.7724,2.7728,2.7733,2.7676,2.7676,2.7676,0,0,2.7847,2.783,2.7831,2.7816,2.7805,2.7803,2.7773,2.7773,2.7772,2.7738,2.7739,2.7727,2.771,2.7718,2.772,2.7708,2.7738,2.7725,2.7729,2.7728,2.773,2.7736,2.7741,2.7677,2.7677,2.7677,0,0,2.7885,2.7873,2.788,2.7869,2.7852,2.7835,2.7837,2.7814,2.7804,2.7806,2.778,2.7777,2.7769,2.7758,2.7751,2.7785,2.7765,2.7784,2.781,2.7814,2.7819,2.7822,2.7833,2.7837,2.7786,2.7786,2.7786,0,2.7914,2.791,2.7886,2.7887,2.7881,2.785,2.7857,2.7847,2.7829,2.7825,2.7813,2.7801,2.7788,2.7791,2.78,2.7796,2.7796,2.7786,2.782,2.7824,2.7827,2.7836,2.7841,2.7789,2.7788,2.7788,2.7788,0,2.7946,2.7944,2.7952,2.7935,2.793,2.7934,2.7909,2.7907,2.7891,2.7875,2.7876,2.7859,2.7848,2.7848,2.7832,2.7849,2.7842,2.7826,2.7803,2.7835,2.7843,2.7847,2.7792,2.7791,2.779,2.779,0,0,2.8009,2.7978,2.7981,2.7973,2.7952,2.795,2.7952,2.7942,2.794,2.7929,2.7929,2.7922,2.7906,2.7899,2.7881,2.7885,2.7911,2.7868,2.7867,2.7875,2.7927,2.7939,2.7944,2.7899,2.7899,2.79,2.7928,0,2.8042,2.8044,2.8022,2.803,2.8027,2.7998,2.8,2.7987,2.7973,2.7968,2.7952,2.7947,2.7927,2.7922,2.7925,2.7908,2.7921,2.7905,2.7897,2.7897,2.79,2.7948,2.7961,2.7988,2.7931,2.7932,2.7932,0,2.808,2.8071,2.8079,2.8057,2.8055,2.8057,2.8045,2.8041,2.8026,2.8015,2.8007,2.7986,2.7986,2.7966,2.7965,2.7955,2.795,2.7941,2.7941,2.7938,2.7916,2.7945,2.7997,2.8,2.7938,2.7937,2.7937,0,2.8123,2.8113,2.8116,2.811,2.8085,2.8086,2.8076,2.806,2.8054,2.8044,2.804,2.803,2.8024,2.8016,2.7994,2.7981,2.7995,2.7973,2.7984,2.7985,2.7987,2.7987,2.8037,2.7987,2.7987,2.7987,2.7987,0,2.8161,2.8167,2.8135,2.8136,2.8141,2.8116,2.8121,2.8108,2.8094,2.8092,2.8067,2.8065,2.8036,2.8031,2.8014,2.8015,2.8013,2.8003,2.7998,2.8004,2.8005,2.7999,2.7996,2.7988,2.7988,2.7988,2.7988,0,2.821,2.8188,2.8189,2.8166,2.816,2.8164,2.8144,2.8144,2.8128,2.8126,2.8124,2.8099,2.8091,2.8068,2.8056,2.8044,2.8049,2.8041,2.8054,2.8051,2.8063,2.8062,2.811,2.8115,2.8064,2.8064,2.8065,0,2.8234,2.8238,2.8214,2.8211,2.8202,2.8198,2.8192,2.8167,2.8163,2.8145,2.8147,2.8138,2.8129,2.8119,2.8099,2.8089,2.8079,2.8097,2.8077,2.8083,2.8077,2.8077,2.8076,2.8101,2.8101,2.8102,2.8102,0,2.828,2.8269,2.8262,2.8252,2.8246,2.8237,2.8226,2.8225,2.8197,2.8193,2.8185,2.8178,2.8165,2.8156,2.8143,2.8131,2.8112,2.8109,2.8111,2.8116,2.8123,2.8118,2.8064,2.8107,2.8107,2.8106,2.8106,2.8106,2.8316,2.8317,2.8301,2.8294,2.8283,2.8273,2.8272,2.8256,2.8249,2.8237,2.8223,2.8217,2.82,2.818,2.817,2.8164,2.8154,2.8157,2.8157,2.8158,2.8161,2.8126,2.8162,2.8162,2.8162,2.8162,2.8161,0,2.8358,2.8347,2.8341,2.8326,2.8321,2.8304,2.8291,2.8287,2.8282,2.8269,2.8261,2.8251,2.8242,2.8222,2.8211,2.821,2.82,2.8208,2.8206,2.8204,2.8171,2.817,2.8215,2.8215,2.8215,2.8215,2.8215,2.8215,2.838,2.8381,2.8368,2.8363,2.8351,2.8345,2.8339,2.833,2.8319,2.831,2.8302,2.8289,2.8273,2.826,2.8251,2.8245,2.8241,2.8251,2.8242,2.8211,2.8206,2.8201,2.82,2.825,2.825,2.8274,2.8274,2.8275]}]]